Location: Browne Barr
(41.2080°N, 111.9480°W)
Time: 06:37:48
(UTC+00:00)

X-37B - Pass Details

Date: 09 August 2021
Orbit: 381 x 393 km, 45.0° (Epoch: 29 August)

Event Time Altitude Azimuth Distance (km) Brightness Sun altitude
Exits shadow 11:27:41 - 293° (WNW) 1,644 3.4 -11.5°
Reaches altitude 10° 11:28:18 10° 295° (WNW) 1,398 3.1 -11.4°
Maximum altitude 11:31:24 55° 15° (NNE) 462 1.2 -10.9°
Drops below altitude 10° 11:34:29 10° 94° (E) 1,395 4.3 -10.4°
Sets 11:36:34 0° 99° (E) 2,247 5.3 -10.1°
